Location: Devore Heights
(34.2372°N, 117.4156°W)
Time: 00:47:45
(UTC+00:00)

Vanguard 2 Rocket - Pass Details

Date: 15 September 2024
Orbit: 553 x 3298 km, 32.9° (Epoch: 09 October)

Event Time Altitude Azimuth Distance (km) Brightness Sun altitude
Exits shadow 11:09:26 44° 264° (W) 2,894 8.9 -29.4°
Maximum altitude 11:15:29 86° 179° (S) 2,630 9.0 -28.3°
Drops below altitude 10° 11:35:08 10° 94° (E) 6,225 12.0 -24.6°
Sets 11:40:08 0° 94° (E) 7,277 12.6 -23.6°
